Airfield :
LOGIN :

Register | Disclaimer

   EN    FR    IT 

 










Legend :    VFR   Marginal VFR   IFR   Intensive IFR   Very Intensive IFR
Visi :
Ceiling :
>= 8 km
>= 3000ft
5 to 8 km
1000 to 3000 ft
1500m to 5 km
500 to 1000 ft
800 to 1500m
200 to 500 ft
< 800m
< 200 ft
Symbols :   Thunderstorms  Fog  Heavy snow  Heavy precipitations  Wind > 20 kt
SIGMETs :     Misc.  Thunderstorms  Icing  Turbulence  Mountain Waves  Volcanic Ashes







- Airport Elevation : 1649 ft
- IATA code : HHN


EDFH - Frankfurt-Hahn Rhineland-Palatinate

CURRENT METAR :
  • 291250Z 18013KT CAVOK 29/12 Q1014

EXPIRED METARs :
  • 291220Z 17011KT CAVOK 29/12 Q1015
  • 291150Z 17011KT 140V200 CAVOK 29/12 Q1015
  • 291120Z 17010KT 150V220 CAVOK 28/12 Q1015
  • 291050Z 17011KT 140V200 CAVOK 28/12 Q1015
  • 291020Z 16009KT 120V190 CAVOK 27/16 Q1015

TAF TAF EDFH
Valid from the 29 at 12:00 until the 30 at 12:00 UTC


291100Z 2912/3012 18010KT CAVOK
BECMG 2912/2915 24006KT
PROB30
TEMPO 2912/2920 25015G25KT TSRA SCT035CB
PROB30
TEMPO 3010/3012 TSRA SCT035CB
No reported NOTAMs for that airfield.



MET'MAP, your aeronautical weather chart ! - Copyright ORBIFLY December 2007 - Disclaimer

ORBIFLY MET'MAP TEAM :

Programming & Development : Alexandra Zaïnal
Concept & Development : Baudouin d'Aumeries
Co-Development & Prog : Marc-Olivier Méhu
Technical & hardware support : Manuel Goepfert

Contact : metmap@orbifly.com




SOURCES & CREDITS :

   NOAA